Starlink 31153

operational
NORAD ID: 59044 Int'l Des: 2024-038 Owner: SPXS Country: US Constellation: starlink
LEOCIRCULAR

About Starlink 31153

Description loading...

Live Position

Loading 3D Globe...

Upcoming Passes

Altitude History

Altitude vs Time

uPlot chart will show altitude changes over time

Two-Line Element Set

1 59044U 24038X 25314.77899684 .00001840 00000-0 76389-4 0 9992
2 59044 43.0045 335.0005 0001308 265.2953 94.7749 15.27573417 96502
Epoch: Nov 10, 2025 • Age: 19 hours

Current Status

Altitude 487.1 km
Velocity 7.63 km/s
Sub-Earth Point 42.99°N, 166.68°E
Launch Date Feb 25, 2024
Age 1.7 years
Type internet

Technical Details

Classification Payload
Mass 730.00 kg
Dry Mass 700.00 kg
Total Mass 730.00 kg
Length 0.30 m
Diameter 4.10 m
Span 29.00 m
Shape Box + pan
Manufacturer SPXS
Bus Type Starlink V2M
Phase Status In Orbit
Owner/State SPXS/US

Large Constellations

Loading constellations...